This is the latest recevied weather packets stored in our database for station/object VK4TW-13. If no packets are shown the sender has not sent any weather packets the latest 10 day(s).
| Time | Temp. | Humidity | Pressure | Rain* | Wind** | Luminosity | Snow |
|---|---|---|---|---|---|---|---|
| 1777845591 | 22.22° C | 100% | 1016.5 hPa | 0 mm | - | - | - |
| 1777845408 | 22.22° C | 100% | 1016.5 hPa | 0 mm | - | - | - |
| 1777844832 | 21.67° C | 100% | 1016.4 hPa | 0 mm | - | - | - |
| 1777844232 | 21.11° C | 100% | 1016.3 hPa | 0 mm | - | - | - |
| 1777843631 | 21.11° C | 100% | 1016.4 hPa | 0 mm | - | - | - |
| 1777843028 | 20.56° C | 100% | 1016.4 hPa | 0 mm | - | - | - |
| 1777842428 | 20° C | 100% | 1016.4 hPa | 0 mm | - | - | - |
| 1777841828 | 19.44° C | 100% | 1016.4 hPa | 0 mm | - | - | - |
| 1777841226 | 19.44° C | 100% | 1016.2 hPa | 0 mm | - | - | - |
| 1777840628 | 19.44° C | 100% | 1015.9 hPa | 0 mm | - | - | - |
| 1777840026 | 19.44° C | 100% | 1015.8 hPa | 0 mm | - | - | - |
| 1777839422 | 19.44° C | 100% | 1015.8 hPa | 0 mm | - | - | - |
| 1777839242 | 19.44° C | 100% | 1015.7 hPa | 0 mm | - | - | - |
| 1777838742 | 19.44° C | 100% | 1015.7 hPa | 0 mm | - | - | - |
| 1777838142 | 19.44° C | 100% | 1015.6 hPa | 0 mm | - | - | - |
| 1777837955 | 19.44° C | 100% | 1015.6 hPa | 0 mm | - | - | - |
| 1777836753 | 19.44° C | 100% | 1015.6 hPa | 0 mm | - | - | - |
| 1777834951 | 19.44° C | 100% | 1015.6 hPa | 0 mm | - | - | - |
| 1777834349 | 20° C | 100% | 1015.6 hPa | 0 mm | - | - | - |
| 1777833459 | 20° C | 100% | 1015.6 hPa | 0 mm | - | - | - |
| 1777833064 | 20° C | 100% | 1015.6 hPa | 0 mm | - | - | - |
| 1777832360 | 20° C | 100% | 1015.5 hPa | 0 mm | - | - | - |
| 1777832164 | 20° C | 100% | 1015.6 hPa | 0 mm | - | - | - |
| 1777831721 | 20° C | 100% | 1015.6 hPa | 0 mm | - | - | - |
| 1777831175 | 20° C | 100% | 1015.6 hPa | 0 mm | - | - | - |
* Rain since midnight (hover to see other rain measurements)
** Current wind speed in m/s (hover to see current wind gust speed)